Date String (YYYY-MM-DD hh:mm:ss) UTC,Instrument flags,absolute air pressure of the measurement (hPa),sample flow rate (lpm),inlet stack bypass flow (lpm),air temperature of the measurement (°C),ambient temperature measured by the external sensor (°C),aerosol sample conditioner tube jacket temperature (°C),OPC LED temperature (°C),internal box temperature (°C),relative humidity of the measurement (%),span deviation,mass concentration of particles derived from Lorenz-Mie calculation of OPC scattering (μg/m³),mass concentration of particles derived from Lorenz-Mie calculation of OPC scattering (μg/m³),mass concentration of particles derived from Lorenz-Mie calculation of OPC scattering (μg/m³)
DateTimeUTC,F1_M11,P_M11,Q1_M11,Q2_M11,T1_M11,T2_M11,T3_M11,T4_M11,T5_M11,U1_M11,ZSPAN_M11,X2_M11,X0_M11,X1_M11
2023-12-22 04:00:00,SystemResetWarning,0833.0,5.01,000.00,025.4,024.2,000.0,033.7,026.7,10.8,0000.0,0000.91,0001.20,0000.76
2023-12-22 04:01:00,SystemResetWarning,0832.9,4.99,000.00,025.3,024.2,000.0,033.7,026.7,10.8,0000.0,0000.96,0001.32,0000.77
2023-12-22 04:02:00,SystemResetWarning,0832.9,4.99,000.00,025.3,024.2,000.0,033.7,026.7,10.8,0000.0,0000.98,0001.36,0000.79
2023-12-22 04:03:00,SystemResetWarning,0833.0,5.01,000.00,025.3,024.2,000.0,033.7,026.7,10.8,0000.0,0000.99,0001.38,0000.80
2023-12-22 04:04:00,SystemResetWarning,0833.0,5.00,000.00,025.3,024.2,000.0,033.7,026.7,10.9,0000.0,0001.01,0001.35,0000.84
2023-12-22 04:05:00,SystemResetWarning,0833.0,4.99,000.00,025.3,024.2,000.0,033.7,026.7,10.9,0000.0,0001.04,0001.39,0000.86
2023-12-22 04:06:00,SystemResetWarning,0833.0,4.99,000.00,025.3,024.2,000.0,033.7,026.7,10.9,0000.0,0001.03,0001.39,0000.85
2023-12-22 04:07:00,SystemResetWarning,0833.0,5.01,000.00,025.3,024.2,000.0,033.7,026.6,10.9,0000.0,0000.99,0001.36,0000.82
2023-12-22 04:08:00,SystemResetWarning,0832.9,5.02,000.00,025.3,024.2,000.0,033.7,026.6,10.9,0000.0,0000.96,0001.42,0000.80
2023-12-22 04:09:00,SystemResetWarning,0832.9,4.99,000.00,025.3,024.2,000.0,033.7,026.6,10.8,0000.0,0000.97,0001.45,0000.81
2023-12-22 04:10:00,SystemResetWarning,0833.0,4.99,000.00,025.3,024.2,000.0,033.7,026.6,10.9,0000.0,0000.96,0001.40,0000.82
2023-12-22 04:11:00,SystemResetWarning,0833.0,4.99,000.00,025.3,024.1,000.0,033.7,026.6,11.0,0000.0,0000.93,0001.37,0000.80
2023-12-22 04:12:00,SystemResetWarning,0833.0,5.01,000.00,025.3,024.1,000.0,033.7,026.6,11.0,0000.0,0000.88,0001.25,0000.78
2023-12-22 04:13:00,SystemResetWarning,0832.9,5.01,000.00,025.3,024.1,000.0,033.7,026.6,11.0,0000.0,0000.87,0001.24,0000.76
2023-12-22 04:14:00,SystemResetWarning,0832.9,4.99,000.00,025.3,024.1,000.0,033.7,026.6,11.1,0000.0,0000.86,0001.25,0000.75
2023-12-22 04:15:00,SystemResetWarning,0833.0,4.99,000.00,025.2,024.1,000.0,033.6,026.6,11.1,0000.0,0000.87,0001.30,0000.74
2023-12-22 04:16:00,SystemResetWarning,0832.9,5.01,000.00,025.2,024.1,000.0,033.6,026.6,11.3,0000.0,0000.85,0001.30,0000.73
2023-12-22 04:17:00,SystemResetWarning,0833.0,5.00,000.00,025.2,024.1,000.0,033.6,026.6,11.4,0000.0,0000.85,0001.30,0000.73
2023-12-22 04:18:00,SystemResetWarning,0832.9,5.00,000.00,025.2,024.1,000.0,033.6,026.6,11.4,0000.0,0000.84,0001.25,0000.72
2023-12-22 04:19:00,SystemResetWarning,0833.0,5.00,000.00,025.2,024.1,000.0,033.6,026.6,11.4,0000.0,0000.84,0001.18,0000.71
2023-12-22 04:20:00,SystemResetWarning,0832.9,4.99,000.00,025.2,024.1,000.0,033.6,026.7,11.5,0000.0,0000.88,0001.32,0000.69
2023-12-22 04:21:00,SystemResetWarning,0833.2,4.99,000.00,025.2,024.1,000.0,033.6,026.7,11.5,0000.0,0000.89,0001.42,0000.67
2023-12-22 04:22:00,SystemResetWarning,0833.3,5.01,000.00,025.2,024.1,000.0,033.6,026.7,11.5,0000.0,0000.90,0001.44,0000.67
2023-12-22 04:23:00,SystemResetWarning,0833.2,5.01,000.00,025.2,024.1,000.0,033.6,026.7,11.5,0000.0,0000.88,0001.42,0000.66
2023-12-22 04:24:00,SystemResetWarning,0832.9,5.00,000.00,025.2,024.1,000.0,033.6,026.6,11.4,0000.0,0000.87,0001.39,0000.66
2023-12-22 04:25:00,SystemResetWarning,0832.9,4.99,000.00,025.2,024.1,000.0,033.6,026.6,11.4,0000.0,0000.86,0001.38,0000.65
2023-12-22 04:26:00,SystemResetWarning,0832.9,4.99,000.00,025.2,024.1,000.0,033.6,026.6,11.4,0000.0,0000.86,0001.52,0000.63
2023-12-22 04:27:00,SystemResetWarning,0833.0,5.02,000.00,025.2,024.1,000.0,033.6,026.6,11.5,0000.0,0000.86,0001.64,0000.62
2023-12-22 04:28:00,SystemResetWarning,0833.2,5.01,000.00,025.2,024.1,000.0,033.6,026.6,11.6,0000.0,0000.85,0001.61,0000.60
2023-12-22 04:29:00,SystemResetWarning,0833.3,4.99,000.00,025.2,024.1,000.0,033.6,026.6,11.6,0000.0,0000.83,0001.58,0000.60
2023-12-22 04:30:00,SystemResetWarning,0833.2,4.99,000.00,025.2,024.1,000.0,033.6,026.6,11.6,0000.0,0000.81,0001.55,0000.60
2023-12-22 04:31:00,SystemResetWarning,0833.0,5.00,000.00,025.2,024.1,000.0,033.6,026.6,11.5,0000.0,0000.76,0001.39,0000.60
2023-12-22 04:32:00,SystemResetWarning,0833.3,5.00,000.00,025.2,024.1,000.0,033.6,026.6,11.4,0000.0,0000.74,0001.25,0000.59
2023-12-22 04:33:00,SystemResetWarning,0833.4,5.00,000.00,025.2,024.1,000.0,033.6,026.6,11.5,0000.0,0000.74,0001.25,0000.58
2023-12-22 04:34:00,SystemResetWarning,0833.4,4.99,000.00,025.2,024.1,000.0,033.6,026.7,11.5,0000.0,0000.74,0001.27,0000.57
2023-12-22 04:35:00,SystemResetWarning,0833.4,5.00,000.00,025.2,024.1,000.0,033.5,026.7,11.6,0000.0,0000.75,0001.31,0000.56
2023-12-22 04:36:00,SystemResetWarning,0833.3,5.00,000.00,025.2,024.1,000.0,033.5,026.7,11.6,0000.0,0000.75,0001.31,0000.56
2023-12-22 04:37:00,SystemResetWarning,0833.4,5.00,000.00,025.2,024.1,000.0,033.5,026.6,11.7,0000.0,0000.74,0001.30,0000.56
2023-12-22 04:38:00,SystemResetWarning,0833.4,5.00,000.00,025.2,024.1,000.0,033.5,026.6,11.7,0000.0,0000.70,0001.00,0000.54
2023-12-22 04:39:00,SystemResetWarning,0833.3,5.00,000.00,025.2,024.1,000.0,033.5,026.6,11.7,0000.0,0000.69,0000.96,0000.54
2023-12-22 04:40:00,SystemResetWarning,0833.2,5.00,000.00,025.2,024.1,000.0,033.5,026.6,11.7,0000.0,0000.70,0001.00,0000.55
2023-12-22 04:41:00,SystemResetWarning,0833.3,4.98,000.00,025.2,024.1,000.0,033.5,026.6,11.7,0000.0,0000.72,0001.05,0000.56
2023-12-22 04:42:00,SystemResetWarning,0833.3,5.00,000.00,025.2,024.1,000.0,033.5,026.6,11.8,0000.0,0000.72,0001.08,0000.56
2023-12-22 04:43:00,SystemResetWarning,0833.3,5.00,000.00,025.2,024.1,000.0,033.5,026.6,11.8,0000.0,0000.73,0001.11,0000.56
2023-12-22 04:44:00,SystemResetWarning,0833.4,5.01,000.00,025.2,024.1,000.0,033.5,026.6,11.8,0000.0,0000.73,0001.11,0000.57
2023-12-22 04:45:00,SystemResetWarning,0833.4,5.01,000.00,025.2,024.1,000.0,033.5,026.6,11.8,0000.0,0000.71,0001.08,0000.57
2023-12-22 04:46:00,SystemResetWarning,0833.4,4.99,000.00,025.2,024.1,000.0,033.5,026.6,11.8,0000.0,0000.75,0001.16,0000.58
2023-12-22 04:47:00,SystemResetWarning,0833.3,5.01,000.00,025.2,024.1,000.0,033.5,026.5,11.9,0000.0,0000.76,0001.20,0000.58
2023-12-22 04:48:00,SystemResetWarning,0833.4,4.99,000.00,025.2,024.1,000.0,033.5,026.6,12.0,0000.0,0000.76,0001.21,0000.58
2023-12-22 04:49:00,SystemResetWarning,0833.2,5.01,000.00,025.2,024.1,000.0,033.5,026.6,12.0,0000.0,0000.75,0001.17,0000.58
2023-12-22 04:50:00,SystemResetWarning,0833.3,5.01,000.00,025.2,024.1,000.0,033.5,026.6,12.1,0000.0,0000.75,0001.16,0000.59
2023-12-22 04:51:00,SystemResetWarning,0833.5,5.00,000.00,025.2,024.1,000.0,033.5,026.6,12.1,0000.0,0000.72,0001.09,0000.58
2023-12-22 04:52:00,SystemResetWarning,0833.4,5.00,000.00,025.2,024.1,000.0,033.5,026.6,12.1,0000.0,0000.70,0001.04,0000.58
2023-12-22 04:53:00,SystemResetWarning,0833.3,4.99,000.00,025.2,024.1,000.0,033.5,026.6,12.1,0000.0,0000.72,0001.04,0000.58
2023-12-22 04:54:00,SystemResetWarning,0833.0,5.01,000.00,025.2,024.1,000.0,033.5,026.6,12.2,0000.0,0000.73,0001.08,0000.58
2023-12-22 04:55:00,SystemResetWarning,0832.9,5.01,000.00,025.2,024.1,000.0,033.5,026.6,12.2,0000.0,0000.74,0001.13,0000.59
2023-12-22 04:56:00,SystemResetWarning,0832.9,5.00,000.00,025.2,024.1,000.0,033.5,026.6,12.1,0000.0,0000.77,0001.21,0000.60
2023-12-22 04:57:00,SystemResetWarning,0833.0,4.99,000.00,025.2,024.1,000.0,033.5,026.6,12.1,0000.0,0000.77,0001.20,0000.60
2023-12-22 04:58:00,SystemResetWarning,0833.0,4.99,000.00,025.2,024.2,000.0,033.5,026.6,12.1,0000.0,0000.77,0001.20,0000.61
2023-12-22 04:59:00,SystemResetWarning,0833.4,5.00,000.00,025.2,024.2,000.0,033.5,026.6,12.0,0000.0,0000.80,0001.28,0000.62
